X

Important NEWS



New Hub Active

Miami is our new hub! Old members can request transfer via hr@dlxairways.net

Thank you very much and have nice flight.


Deluxe Airways.

X

Tours



Hello again, we created one nice test tour for all pilots to attend. also this is ment to be testing of our tour system

Available Tours

If you find some issues please inform us.

Thank you very much and have nice flight.


Deluxe Airways.

 METAR AND TAF INFORMATION
ArrayMETAR FOR KMIA
126120861 4 KMIA 140253Z 12005KT 10SM SCT016 26/25 A3007 RMK AO2 SLP181 T02610250 51015 KMIA 2018-11-14T02:53:00Z 25.8 -80.28 26.1 25.0 120 5 10.0 30.070866 1018.1 TRUE VFR 1.5 METAR 3.0 KMIA 140153Z 13005KT 10SM FEW020 27/25 A3006 RMK AO2 SLP178 T02670250 KMIA 2018-11-14T01:53:00Z 25.8 -80.28 26.7 25.0 130 5 10.0 30.059055 1017.8 TRUE VFR METAR 3.0

 AIRPORT MAP

 RUNWAY INFORMATION
Runway 08L Runway length 8600 ft Runway width 150 ft
Runway elevation 8 ft Runway displaced threshold 0 ft Runway heading 87
Runway 26R Runway length 8600 ft Runway width 150 ft
Runway elevation 8 ft Runway displaced threshold 0 ft Runway heading 267
Runway 08R Runway length 10506 ft Runway width 200 ft
Runway elevation 8 ft Runway displaced threshold 0 ft Runway heading 87
Runway 26L Runway length 10506 ft Runway width 200 ft
Runway elevation 8 ft Runway displaced threshold 0 ft Runway heading 267
Runway 09 Runway length 13000 ft Runway width 150 ft
Runway elevation 7 ft Runway displaced threshold 1350 ft Runway heading 87
Runway 27 Runway length 13000 ft Runway width 150 ft
Runway elevation 8 ft Runway displaced threshold 1270 ft Runway heading 267
Runway 12 Runway length 9354 ft Runway width 150 ft
Runway elevation 8 ft Runway displaced threshold 0 ft Runway heading 119
Runway 30 Runway length 9354 ft Runway width 150 ft
Runway elevation 8 ft Runway displaced threshold 939 ft Runway heading 299

 AIRPORT FREQUENCIES
Type APP Name APP Frequency 120.5 MHZ
Type ATIS Name ATIS Frequency 119.15 MHZ
Type CLD Name CLNC DEL Frequency 120.35 MHZ
Type DEP Name DEP Frequency 119.45 MHZ
Type GND Name GND Frequency 121.8 MHZ
Type TWR Name TWR Frequency 118.3 MHZ
Type UNIC Name UNICOM Frequency 123 MHZ

 AIRPORT NEAR NAVIGATION AIDS
Type VORTAC Name Dolphin Frequency 113900 KHZ
Type NDB Name Keyes Frequency 248 KHZ



Powered by Virtual Airlines Manager [v2.6.2]

Template code change by DeluxeAir